{"data":{"norad_id":45197,"intl_designator":"2020-012V","name":"STARLINK-1269","alt_names":[],"object_type":"PAYLOAD","status":"ACTIVE","operator":null,"country":"US","launch_date":"2020-02-17","launch_site_code":"AFETR","launch_vehicle":null,"mission":null,"orbit_class":"UNKNOWN","rcs_meters":null,"size_class":null,"mass_kg":null,"dimensions":null,"purposes":["comms"],"wikipedia_slug":null,"has_3d_model":false,"image_url":null,"decayed_at":null,"tle_current":{"epoch":"2026-05-24T23:32:18.894336Z","epoch_age_seconds":87191,"freshness":"FRESH","line1":"1 45197U 20012V   26144.98077424  .00038077  00000+0  11613-2 0  9997","line2":"2 45197  53.1581  44.6202 0003039  83.7580 276.3769 15.33600011346604","mean_motion":15.33600011,"eccentricity":0.0003039,"inclination_deg":53.1581,"raan_deg":44.6202,"arg_perigee_deg":83.758,"mean_anomaly_deg":276.3769,"bstar":0.0011613,"rev_number":34660,"period_min":93.896712941534,"perigee_km":463.00235539245,"apogee_km":467.16166390651,"semimajor_km":6843.2190096495,"source":"CELESTRAK","updated_at":"2026-05-25T13:38:16.382795Z"}}}